When you browse on this site, cookies collect data to enhance your experience and personalize the content and advertising you see.
Visit our Privacy Policy to learn more. By continuing to use the site, you agree to this use of cookies and data.

Meteo pe oră la Yulara

Astăzi, 13 Iulie, Luni

Timp Temperatura Precipitaţii Vânt Presiune Umiditate
00:00 +5°C° 0 mm 4 m/s 723 mmHg 62%
01:00 +5°C° 0 mm 4 m/s 723 mmHg 66%
02:00 +4°C° 0 mm 4 m/s 723 mmHg 71%
03:00 +3°C° 0 mm 4 m/s 723 mmHg 76%
04:00 +3°C° 0 mm 4 m/s 723 mmHg 79%
05:00 +2°C° 0 mm 3 m/s 723 mmHg 82%
06:00 +2°C° 0 mm 3 m/s 723 mmHg 85%
07:00 +4°C° 0 mm 4 m/s 724 mmHg 77%
08:00 +6°C° 0 mm 4 m/s 724 mmHg 69%
09:00 +8°C° 0 mm 5 m/s 724 mmHg 61%
10:00 +10°C° 0 mm 5 m/s 724 mmHg 52%
11:00 +13°C° 0 mm 6 m/s 723 mmHg 43%
12:00 +16°C° 0 mm 6 m/s 723 mmHg 35%
13:00 +17°C° 0 mm 6 m/s 722 mmHg 31%
14:00 +18°C° 0 mm 7 m/s 722 mmHg 27%
15:00 +20°C° 0 mm 7 m/s 721 mmHg 24%
16:00 +17°C° 0 mm 6 m/s 721 mmHg 28%
17:00 +14°C° 0 mm 5 m/s 721 mmHg 33%
18:00 +12°C° 0 mm 4 m/s 721 mmHg 37%
19:00 +11°C° 0 mm 4 m/s 722 mmHg 40%
20:00 +10°C° 0 mm 4 m/s 722 mmHg 43%
21:00 +8°C° 0 mm 4 m/s 723 mmHg 46%
22:00 +7°C° 0 mm 4 m/s 723 mmHg 49%
23:00 +6°C° 0 mm 4 m/s 723 mmHg 52%

Mâine, 14 Iulie, Marţi

Timp Temperatura Precipitaţii Vânt Presiune Umiditate
00:00 +5°C° 0 mm 4 m/s 722 mmHg 55%
01:00 +5°C° 0 mm 4 m/s 722 mmHg 58%
02:00 +4°C° 0 mm 3 m/s 723 mmHg 62%
03:00 +3°C° 0 mm 3 m/s 723 mmHg 65%
04:00 +3°C° 0 mm 3 m/s 723 mmHg 67%
05:00 +3°C° 0 mm 3 m/s 723 mmHg 70%
06:00 +2°C° 0 mm 3 m/s 723 mmHg 73%
07:00 +4°C° 0 mm 3 m/s 724 mmHg 65%
08:00 +6°C° 0 mm 4 m/s 724 mmHg 58%
09:00 +8°C° 0 mm 4 m/s 724 mmHg 50%
10:00 +11°C° 0 mm 4 m/s 724 mmHg 43%
11:00 +14°C° 0 mm 4 m/s 724 mmHg 35%
12:00 +16°C° 0 mm 5 m/s 723 mmHg 28%
13:00 +18°C° 0 mm 4 m/s 722 mmHg 25%
14:00 +19°C° 0 mm 3 m/s 722 mmHg 22%
15:00 +20°C° 0 mm 3 m/s 721 mmHg 19%
16:00 +17°C° 0 mm 3 m/s 721 mmHg 22%
17:00 +14°C° 0 mm 3 m/s 721 mmHg 25%
18:00 +12°C° 0 mm 3 m/s 721 mmHg 29%
19:00 +11°C° 0 mm 3 m/s 721 mmHg 32%
20:00 +10°C° 0 mm 3 m/s 721 mmHg 35%
21:00 +9°C° 0 mm 3 m/s 722 mmHg 38%
22:00 +8°C° 0 mm 3 m/s 722 mmHg 43%
23:00 +7°C° 0 mm 3 m/s 722 mmHg 48%

Poimâine, 15 Iulie, Miercuri

Timp Temperatura Precipitaţii Vânt Presiune Umiditate
00:00 +5°C° 0 mm 3 m/s 722 mmHg 52%
01:00 +4°C° 0 mm 3 m/s 722 mmHg 54%
02:00 +4°C° 0 mm 3 m/s 722 mmHg 56%
03:00 +4°C° 0 mm 3 m/s 722 mmHg 57%
04:00 +3°C° 0 mm 3 m/s 722 mmHg 60%
05:00 +3°C° 0 mm 3 m/s 722 mmHg 63%
06:00 +2°C° 0 mm 3 m/s 722 mmHg 66%
07:00 +4°C° 0 mm 3 m/s 722 mmHg 59%
08:00 +7°C° 0 mm 3 m/s 723 mmHg 51%
09:00 +9°C° 0 mm 3 m/s 723 mmHg 44%
10:00 +12°C° 0 mm 3 m/s 723 mmHg 38%
11:00 +14°C° 0 mm 3 m/s 722 mmHg 32%
12:00 +17°C° 0 mm 3 m/s 722 mmHg 26%
13:00 +18°C° 0 mm 3 m/s 721 mmHg 23%
14:00 +19°C° 0 mm 3 m/s 721 mmHg 21%
15:00 +20°C° 0 mm 3 m/s 720 mmHg 18%
16:00 +18°C° 0 mm 3 m/s 720 mmHg 21%
17:00 +16°C° 0 mm 3 m/s 720 mmHg 24%
18:00 +13°C° 0 mm 3 m/s 720 mmHg 27%
19:00 +12°C° 0 mm 3 m/s 721 mmHg 28%
20:00 +11°C° 0 mm 3 m/s 721 mmHg 30%
21:00 +10°C° 0 mm 3 m/s 721 mmHg 32%
22:00 +9°C° 0 mm 3 m/s 721 mmHg 34%
23:00 +7°C° 0 mm 4 m/s 722 mmHg 37%

16 Iulie, Joi

Timp Temperatura Precipitaţii Vânt Presiune Umiditate
00:00 +6°C° 0 mm 4 m/s 722 mmHg 40%
01:00 +6°C° 0 mm 4 m/s 721 mmHg 44%
02:00 +5°C° 0 mm 4 m/s 721 mmHg 47%
03:00 +5°C° 0 mm 4 m/s 721 mmHg 51%
04:00 +4°C° 0 mm 4 m/s 721 mmHg 54%
05:00 +4°C° 0 mm 3 m/s 722 mmHg 58%
06:00 +3°C° 0 mm 3 m/s 722 mmHg 62%
07:00 +5°C° 0 mm 4 m/s 722 mmHg 58%
08:00 +7°C° 0 mm 4 m/s 723 mmHg 54%
09:00 +10°C° 0 mm 4 m/s 723 mmHg 49%
10:00 +13°C° 0 mm 5 m/s 723 mmHg 42%
11:00 +15°C° 0 mm 5 m/s 722 mmHg 35%
12:00 +17°C° 0 mm 6 m/s 722 mmHg 28%
13:00 +20°C° 0 mm 6 m/s 721 mmHg 25%
14:00 +21°C° 0 mm 5 m/s 720 mmHg 22%
15:00 +22°C° 0 mm 5 m/s 720 mmHg 19%
16:00 +19°C° 0 mm 5 m/s 720 mmHg 23%
17:00 +17°C° 0 mm 4 m/s 719 mmHg 26%
18:00 +14°C° 0 mm 4 m/s 719 mmHg 30%
19:00 +13°C° 0 mm 4 m/s 720 mmHg 33%
20:00 +12°C° 0 mm 4 m/s 720 mmHg 35%
21:00 +10°C° 0 mm 5 m/s 720 mmHg 38%
22:00 +9°C° 0 mm 5 m/s 720 mmHg 40%
23:00 +8°C° 0 mm 5 m/s 720 mmHg 42%

17 Iulie, Vineri

Timp Temperatura Precipitaţii Vânt Presiune Umiditate
00:00 +7°C° 0 mm 4 m/s 720 mmHg 44%
01:00 +6°C° 0 mm 4 m/s 720 mmHg 47%
02:00 +5°C° 0 mm 4 m/s 720 mmHg 50%
03:00 +4°C° 0 mm 3 m/s 719 mmHg 53%
04:00 +4°C° 0 mm 3 m/s 720 mmHg 55%
05:00 +4°C° 0 mm 3 m/s 720 mmHg 57%
06:00 +3°C° 0 mm 3 m/s 720 mmHg 59%
07:00 +5°C° 0 mm 3 m/s 720 mmHg 52%
08:00 +7°C° 0 mm 4 m/s 720 mmHg 46%
09:00 +10°C° 0 mm 4 m/s 720 mmHg 40%
10:00 +13°C° 0 mm 3 m/s 720 mmHg 34%
11:00 +16°C° 0 mm 3 m/s 720 mmHg 29%
12:00 +19°C° 0 mm 3 m/s 719 mmHg 24%
13:00 +20°C° 0 mm 2 m/s 719 mmHg 22%
14:00 +21°C° 0 mm 2 m/s 718 mmHg 20%
15:00 +23°C° 0 mm 2 m/s 717 mmHg 18%
16:00 +19°C° 0 mm 2 m/s 717 mmHg 27%
17:00 +16°C° 0 mm 2 m/s 716 mmHg 37%
18:00 +13°C° 0 mm 2 m/s 716 mmHg 46%
19:00 +12°C° 0 mm 2 m/s 717 mmHg 46%
20:00 +12°C° 0 mm 2 m/s 717 mmHg 46%
21:00 +10°C° 0 mm 2 m/s 717 mmHg 46%
22:00 +10°C° 0 mm 2 m/s 717 mmHg 45%
23:00 +9°C° 0 mm 2 m/s 717 mmHg 43%

18 Iulie, Sâmbătă

Timp Temperatura Precipitaţii Vânt Presiune Umiditate
00:00 +9°C° 0 mm 3 m/s 717 mmHg 41%
01:00 +8°C° 0 mm 3 m/s 717 mmHg 42%
02:00 +7°C° 0 mm 2 m/s 716 mmHg 43%
03:00 +7°C° 0 mm 2 m/s 716 mmHg 44%
04:00 +6°C° 0 mm 2 m/s 716 mmHg 46%
05:00 +6°C° 0 mm 2 m/s 716 mmHg 49%
06:00 +5°C° 0 mm 2 m/s 716 mmHg 51%
07:00 +8°C° 0 mm 2 m/s 717 mmHg 44%
08:00 +11°C° 0 mm 1 m/s 717 mmHg 37%
09:00 +14°C° 0 mm 1 m/s 718 mmHg 30%
10:00 +17°C° 0 mm 2 m/s 718 mmHg 26%
11:00 +19°C° 0 mm 2 m/s 718 mmHg 22%
12:00 +22°C° 0 mm 3 m/s 718 mmHg 19%
13:00 +23°C° 0 mm 4 m/s 717 mmHg 18%
14:00 +25°C° 0 mm 4 m/s 717 mmHg 17%
15:00 +26°C° 0 mm 5 m/s 717 mmHg 17%
16:00 +22°C° 0 mm 5 m/s 717 mmHg 20%
17:00 +20°C° 0 mm 4 m/s 717 mmHg 23%
18:00 +18°C° 0 mm 4 m/s 717 mmHg 26%
19:00 +16°C° 0 mm 5 m/s 718 mmHg 29%
20:00 +15°C° 0 mm 5 m/s 718 mmHg 32%
21:00 +13°C° 0 mm 6 m/s 719 mmHg 35%
22:00 +11°C° 0 mm 6 m/s 719 mmHg 44%
23:00 +10°C° 0 mm 5 m/s 719 mmHg 53%
Arată mai mult